| time (UTC) | temp F | wind direction | speed MPH | gust MPH | rain 1hr in | rain 24hr in | rain mn in | humidity % | barometer mb |
| 20260509063112 | 46 | 174 | 9.0 | 0.0 | 0.00 | 0.00 | 0.00 | 46 | 978.9 |
| 20260509061555 | 47 | 175 | 8.0 | 0.0 | 0.00 | 0.00 | 0.00 | 46 | 978.8 |
| 20260509060139 | 47 | 171 | 7.0 | 0.0 | 0.00 | 0.00 | 0.00 | 46 | 978.8 |
| 20260509054555 | 47 | 172 | 6.0 | 0.0 | 0.00 | 0.00 | 0.00 | 41 | 980.4 |
| 20260509053110 | 47 | 168 | 6.0 | 0.0 | 0.00 | 0.00 | 0.00 | 42 | 979.7 |
| 20260509051553 | 47 | 163 | 6.0 | 0.0 | 0.00 | 0.00 | 0.00 | 42 | 979.7 |
| 20260509050127 | 47 | 172 | 6.0 | 0.0 | 0.00 | 0.00 | 0.00 | 42 | 979.7 |
| 20260509044554 | 47 | 166 | 6.0 | 0.0 | 0.00 | 0.00 | 0.00 | 38 | 980.8 |
| 20260509043110 | 48 | 171 | 6.0 | 0.0 | 0.00 | 0.00 | 0.00 | 39 | 979.5 |
| 20260509041554 | 49 | 176 | 6.0 | 0.0 | 0.00 | 0.00 | 0.00 | 39 | 979.5 |
| 20260509040131 | 49 | 173 | 7.0 | 0.0 | 0.00 | 0.00 | 0.00 | 39 | 979.5 |
| 20260509034554 | 49 | 171 | 7.0 | 0.0 | 0.00 | 0.00 | 0.00 | 36 | 980.2 |
| 20260509033109 | 50 | 174 | 6.0 | 0.0 | 0.00 | 0.00 | 0.00 | 34 | 980.8 |
| 20260509031554 | 50 | 172 | 6.0 | 0.0 | 0.00 | 0.00 | 0.00 | 34 | 980.8 |
| 20260509030126 | 50 | 165 | 6.0 | 0.0 | 0.00 | 0.00 | 0.00 | 34 | 980.8 |
| 20260509024553 | 51 | 162 | 5.0 | 0.0 | 0.00 | 0.00 | 0.00 | 29 | 981.4 |
| 20260509023111 | 51 | 173 | 5.0 | 0.0 | 0.00 | 0.00 | 0.00 | 30 | 981.2 |
| 20260509021554 | 51 | 182 | 6.0 | 0.0 | 0.00 | 0.00 | 0.00 | 30 | 981.2 |
| 20260509020123 | 52 | 187 | 5.0 | 0.0 | 0.00 | 0.00 | 0.00 | 30 | 981.2 |
| 20260509014552 | 53 | 192 | 5.0 | 0.0 | 0.00 | 0.00 | 0.00 | 31 | 981.2 |
| 20260509013107 | 53 | 204 | 4.0 | 0.0 | 0.00 | 0.00 | 0.00 | 31 | 981.2 |
| 20260509011552 | 54 | 208 | 3.0 | 0.0 | 0.00 | 0.00 | 0.00 | 31 | 981.2 |
| 20260509010120 | 55 | 220 | 3.0 | 0.0 | 0.00 | 0.00 | 0.00 | 31 | 981.2 |
| 20260509004552 | 55 | 229 | 4.0 | 0.0 | 0.00 | 0.00 | 0.00 | 25 | 981.1 |
| 20260509003111 | 56 | 231 | 4.0 | 0.0 | 0.00 | 0.00 | 0.00 | 25 | 982.3 |
| 20260509001552 | 57 | 245 | 4.0 | 0.0 | 0.00 | 0.00 | 0.00 | 25 | 982.3 |
| 20260509000133 | 59 | 254 | 5.0 | 0.0 | 0.00 | 0.00 | 0.00 | 25 | 982.3 |
| 20260508234553 | 59 | 256 | 7.0 | 0.0 | 0.00 | 0.00 | 0.00 | 22 | 981.6 |
| 20260508233113 | 60 | 262 | 7.0 | 0.0 | 0.00 | 0.00 | 0.00 | 22 | 982.0 |
| 20260508231555 | 60 | 256 | 8.0 | 0.0 | 0.00 | 0.00 | 0.00 | 22 | 982.0 |
| 20260508230119 | 60 | 263 | 8.0 | 0.0 | 0.00 | 0.00 | 0.00 | 22 | 982.0 |
| 20260508224554 | 61 | 265 | 9.0 | 0.0 | 0.00 | 0.00 | 0.00 | 22 | 982.1 |
| 20260508223113 | 60 | 262 | 9.0 | 0.0 | 0.00 | 0.00 | 0.00 | 21 | 983.0 |
| 20260508221556 | 61 | 265 | 10.0 | 0.0 | 0.00 | 0.00 | 0.00 | 21 | 983.0 |
| 20260508220121 | 61 | 264 | 10.0 | 0.0 | 0.00 | 0.00 | 0.00 | 21 | 983.0 |
| 20260508214555 | 61 | 263 | 11.0 | 0.0 | 0.00 | 0.00 | 0.00 | 21 | 983.5 |
| 20260508213112 | 62 | 261 | 11.0 | 0.0 | 0.00 | 0.00 | 0.00 | 22 | 983.0 |
| 20260508211555 | 62 | 255 | 10.0 | 0.0 | 0.00 | 0.00 | 0.00 | 22 | 983.0 |
| 20260508210125 | 62 | 254 | 10.0 | 0.0 | 0.00 | 0.00 | 0.00 | 22 | 983.0 |
| 20260508204556 | 62 | 254 | 10.0 | 0.0 | 0.00 | 0.00 | 0.00 | 22 | 983.1 |
| 20260508203114 | 62 | 247 | 10.0 | 0.0 | 0.00 | 0.00 | 0.00 | 20 | 982.8 |
| 20260508201555 | 62 | 245 | 9.0 | 0.0 | 0.00 | 0.00 | 0.00 | 20 | 982.9 |
| 20260508200121 | 62 | 245 | 9.0 | 0.0 | 0.00 | 0.00 | 0.00 | 20 | 982.9 |
| 20260508194556 | 63 | 243 | 10.0 | 0.0 | 0.00 | 0.00 | 0.00 | 19 | 983.1 |
| 20260508193110 | 63 | 244 | 9.0 | 0.0 | 0.00 | 0.00 | 0.00 | 19 | 983.1 |
| 20260508191554 | 63 | 259 | 9.0 | 0.0 | 0.00 | 0.00 | 0.00 | 19 | 983.2 |
| 20260508190118 | 63 | 259 | 9.0 | 0.0 | 0.00 | 0.00 | 0.00 | 19 | 983.2 |
| 20260508184555 | 62 | 259 | 9.0 | 0.0 | 0.00 | 0.00 | 0.00 | 21 | 983.5 |
| 20260508183114 | 62 | 250 | 9.0 | 0.0 | 0.00 | 0.00 | 0.00 | 21 | 983.1 |
| 20260508181555 | 62 | 251 | 10.0 | 0.0 | 0.00 | 0.00 | 0.00 | 21 | 983.1 |
| 20260508180125 | 62 | 249 | 10.0 | 0.0 | 0.00 | 0.00 | 0.00 | 21 | 983.1 |
| 20260508174555 | 61 | 243 | 10.0 | 0.0 | 0.00 | 0.00 | 0.00 | 29 | 984.2 |
| 20260508173114 | 61 | 249 | 10.0 | 0.0 | 0.00 | 0.00 | 0.00 | 29 | 984.2 |
| 20260508171555 | 60 | 245 | 9.0 | 0.0 | 0.00 | 0.00 | 0.00 | 29 | 984.2 |
| 20260508170120 | 60 | 248 | 9.0 | 0.0 | 0.00 | 0.00 | 0.00 | 29 | 984.2 |
| 20260508164555 | 59 | 248 | 9.0 | 0.0 | 0.00 | 0.00 | 0.00 | 37 | 984.6 |
| 20260508163113 | 59 | 237 | 9.0 | 0.0 | 0.00 | 0.00 | 0.00 | 37 | 984.7 |
| 20260508161555 | 57 | 229 | 8.0 | 0.0 | 0.00 | 0.00 | 0.00 | 37 | 984.7 |
| 20260508160126 | 57 | 225 | 8.0 | 0.0 | 0.00 | 0.00 | 0.00 | 37 | 984.7 |
| 20260508154556 | 56 | 219 | 8.0 | 0.0 | 0.00 | 0.00 | 0.00 | 45 | 985.7 |
| 20260508153115 | 55 | 210 | 8.0 | 0.0 | 0.00 | 0.00 | 0.00 | 46 | 984.4 |
| 20260508151555 | 54 | 199 | 8.0 | 0.0 | 0.00 | 0.00 | 0.00 | 46 | 984.4 |
| 20260508150125 | 53 | 199 | 7.0 | 0.0 | 0.00 | 0.00 | 0.00 | 46 | 984.4 |
| 20260508144556 | 52 | 195 | 6.0 | 0.0 | 0.00 | 0.00 | 0.00 | 62 | 984.8 |
| 20260508143113 | 51 | 195 | 6.0 | 0.0 | 0.00 | 0.00 | 0.00 | 60 | 984.9 |
| 20260508141556 | 50 | 192 | 5.0 | 0.0 | 0.00 | 0.00 | 0.00 | 60 | 984.9 |
| 20260508140134 | 49 | 190 | 5.0 | 0.0 | 0.00 | 0.00 | 0.00 | 63 | 984.7 |
| 20260508134555 | 48 | 189 | 5.0 | 0.0 | 0.00 | 0.00 | 0.00 | 70 | 984.6 |
| 20260508133110 | 47 | 193 | 5.0 | 0.0 | 0.00 | 0.00 | 0.00 | 70 | 984.5 |
| 20260508131555 | 45 | 192 | 5.0 | 0.0 | 0.00 | 0.00 | 0.00 | 70 | 984.5 |
| 20260508130129 | 44 | 187 | 5.0 | 0.0 | 0.00 | 0.00 | 0.00 | 70 | 984.5 |
| 20260508124555 | 42 | 180 | 5.0 | 0.0 | 0.00 | 0.00 | 0.00 | 81 | 984.1 |
| 20260508123114 | 42 | 191 | 4.0 | 0.0 | 0.00 | 0.00 | 0.00 | 80 | 984.5 |
| 20260508121555 | 41 | 180 | 3.0 | 0.0 | 0.00 | 0.00 | 0.00 | 80 | 984.5 |
| 20260508120141 | 39 | 157 | 1.0 | 0.0 | 0.00 | 0.00 | 0.00 | 80 | 984.5 |
| 20260508114555 | 37 | 146 | 1.0 | 0.0 | 0.00 | 0.00 | 0.00 | 81 | 984.0 |
| 20260508113117 | 36 | 149 | 2.0 | 0.0 | 0.00 | 0.00 | 0.00 | 79 | 984.6 |
| 20260508111555 | 36 | 135 | 3.0 | 0.0 | 0.00 | 0.00 | 0.00 | 79 | 984.7 |
| 20260508110121 | 35 | 131 | 4.0 | 0.0 | 0.00 | 0.00 | 0.00 | 79 | 984.7 |
| 20260508104557 | 35 | 117 | 3.0 | 0.0 | 0.00 | 0.00 | 0.00 | 78 | 983.9 |
| 20260508103115 | 35 | 106 | 3.0 | 0.0 | 0.00 | 0.00 | 0.00 | 77 | 984.9 |
| 20260508101558 | 36 | 104 | 3.0 | 0.0 | 0.00 | 0.00 | 0.00 | 77 | 984.9 |
| 20260508100122 | 36 | 104 | 3.0 | 0.0 | 0.00 | 0.00 | 0.00 | 77 | 984.9 |
| 20260508094556 | 37 | 98 | 3.0 | 0.0 | 0.00 | 0.00 | 0.00 | 76 | 984.2 |
| 20260508093111 | 37 | 104 | 2.0 | 0.0 | 0.00 | 0.00 | 0.00 | 83 | 984.9 |
| 20260508091557 | 36 | 153 | 1.0 | 0.0 | 0.00 | 0.00 | 0.00 | 83 | 984.9 |
| 20260508090126 | 37 | 166 | 3.0 | 0.0 | 0.00 | 0.00 | 0.00 | 83 | 984.9 |
| 20260508084557 | 37 | 160 | 4.0 | 0.0 | 0.00 | 0.00 | 0.00 | 72 | 984.5 |
| 20260508083115 | 38 | 141 | 4.0 | 0.0 | 0.00 | 0.00 | 0.00 | 73 | 984.1 |
| 20260508081557 | 38 | 157 | 4.0 | 0.0 | 0.00 | 0.00 | 0.00 | 73 | 984.1 |
| 20260508080128 | 38 | 153 | 4.0 | 0.0 | 0.00 | 0.00 | 0.00 | 73 | 984.1 |
| 20260508074557 | 38 | 153 | 3.0 | 0.0 | 0.00 | 0.00 | 0.00 | 70 | 984.9 |
| 20260508073116 | 39 | 152 | 4.0 | 0.0 | 0.00 | 0.00 | 0.00 | 70 | 984.9 |
| 20260508071556 | 39 | 163 | 4.0 | 0.0 | 0.00 | 0.00 | 0.00 | 70 | 984.9 |
| 20260508070128 | 40 | 161 | 4.0 | 0.0 | 0.00 | 0.00 | 0.00 | 70 | 984.9 |
| 20260508064556 | 40 | 152 | 4.0 | 0.0 | 0.00 | 0.00 | 0.00 | 66 | 984.8 |